Change the Weather History Date:

Monday, April 8, 2013

  Actual Average Record
Temperature  
Mean Temperature 31 °F 44 °F  
Max Temperature 44 °F 57 °F 86 °F (1988)
Min Temperature 17 °F 30 °F 8 °F (2007)
Degree Days  
Heating Degree Days 34 21  
Month to date heating degree days 178 182  
Since 1 July heating degree days 6159 6485  
Cooling Degree Days 0 0  
Month to date cooling degree days 0 0  
Year to date cooling degree days 0 0  
Moisture  
Dew Point 32 °F    
Average Humidity 91    
Maximum Humidity 100    
Minimum Humidity 82    
Precipitation  
Precipitation 0.27 in 0.04 in 0.32 in (1991)
Month to date precipitation 0.31 0.29  
Year to date precipitation 1.53 2.34  
Sea Level Pressure  
Sea Level Pressure 29.88 in    
Wind  
Wind Speed 17 mph (NE)    
Max Wind Speed 33 mph    
Max Gust Speed 38 mph    
Visibility 2 miles    
Events Fog , Rain , Snow    
T = Trace of Precipitation, MM = Missing Value Source: NWS Daily Summary

Daily Weather History Graph

Daily Weather History Graph

Search for Another Location

Airport or City:

Trip Planner

Search our weather history database for the weather conditions in past years. The results will help you decide how hot, cold, wet, or windy it might be!

Date:

Astronomy

Apr. 08, 2013 Rise Set
Actual Time 6:14 AM MDT 7:22 PM MDT
Civil Twilight 5:45 AM MDT 7:52 PM MDT
Nautical Twilight 5:09 AM MDT 8:27 PM MDT
Astronomical Twilight 4:32 AM MDT 9:05 PM MDT
Moon 5:08 AM MDT (4/8) 5:56 PM MDT (4/8)
Length of Visible Light 14h 06m
Length of Day
13h 07m
Waning Crescent, 3% of the Moon is Illuminated
Apr 8
Waning Crescent
Apr 10
New
Apr 18
First Quarter
Apr 25
Full
May 2
Last Quarter

Hourly Weather History & Observations

Time (MDT) Temp. Windchill Dew Point Humidity Pressure Visibility Wind Dir Wind Speed Gust Speed Precip Events Conditions
12:55 AM 42.1 °F 37.1 °F 36.0 °F 79% 29.65 in 10.0 mi NE 8.1 mph - 0.00 in   Mostly Cloudy
1:55 AM 43.0 °F 35.4 °F 37.0 °F 80% 29.61 in 10.0 mi NE 16.1 mph - 0.00 in   Mostly Cloudy
2:55 AM 39.9 °F 33.4 °F 37.9 °F 93% 29.60 in 6.0 mi East 10.4 mph - N/A   Clear
3:11 AM 39.2 °F 35.0 °F 37.4 °F 93% 29.59 in 5.0 mi East 5.8 mph - N/A   Scattered Clouds
3:20 AM 39.2 °F 33.0 °F 37.4 °F 93% 29.60 in 6.0 mi ENE 9.2 mph - N/A   Mostly Cloudy
3:33 AM 39.2 °F 33.6 °F 39.2 °F 100% 29.60 in 1.8 mi East 8.1 mph - N/A   Overcast
3:51 AM 41.0 °F 35.2 °F 39.2 °F 93% 29.60 in 0.8 mi East 9.2 mph - N/A   Mist
3:55 AM 41.0 °F 35.2 °F 41.0 °F 100% 29.60 in 0.8 mi ENE 9.2 mph - N/A   Mist
4:55 AM 39.9 °F 33.9 °F 39.9 °F 100% 29.63 in 0.2 mi East 9.2 mph - N/A Fog Fog
5:55 AM 39.9 °F 34.5 °F 39.9 °F 100% 29.64 in 0.2 mi East 8.1 mph - N/A Fog Fog
6:55 AM 39.0 °F 32.3 °F 39.0 °F 100% 29.66 in 0.2 mi ENE 10.4 mph - N/A Fog Fog
7:55 AM 39.9 °F 32.1 °F 39.9 °F 100% 29.73 in 0.2 mi ENE 13.8 mph - N/A Fog Fog
8:20 AM 39.2 °F 32.5 °F 39.2 °F 100% 29.74 in 1.2 mi ENE 10.4 mph - N/A   Overcast
8:55 AM 39.9 °F 32.9 °F 39.9 °F 100% 29.75 in 1.2 mi ENE 11.5 mph - N/A   Overcast
9:09 AM 39.2 °F 32.0 °F 39.2 °F 100% 29.73 in 0.8 mi NE 11.5 mph - N/A   Overcast
9:55 AM 39.9 °F 32.5 °F 39.9 °F 100% 29.76 in 0.8 mi NE 12.7 mph - N/A   Overcast
10:13 AM 39.2 °F 31.2 °F 39.2 °F 100% 29.76 in 1.2 mi NE 13.8 mph - N/A   Overcast
10:47 AM 39.2 °F 31.2 °F 39.2 °F 100% 29.77 in 2.0 mi NE 13.8 mph - N/A   Overcast
10:55 AM 39.9 °F 31.4 °F 39.0 °F 97% 29.80 in 2.0 mi NE 16.1 mph - 0.00 in Rain Light Rain
11:41 AM 39.2 °F 30.2 °F 37.4 °F 93% 29.80 in 1.8 mi NE 17.3 mph - 0.00 in Rain Light Rain
11:55 AM 39.0 °F 30.3 °F 37.0 °F 93% 29.83 in 1.5 mi NE 16.1 mph - 0.00 in Rain Light Rain
12:37 PM 37.4 °F 28.9 °F 35.6 °F 93% 29.84 in 2.5 mi NE 13.8 mph - 0.01 in Rain Light Rain
12:44 PM 37.4 °F 28.5 °F 35.6 °F 93% 29.84 in 3.0 mi NE 15.0 mph - 0.01 in Rain Light Rain
12:55 PM 37.0 °F 28.5 °F 36.0 °F 96% 29.88 in 3.0 mi NNE 13.8 mph - 0.01 in Rain Light Rain
1:23 PM 37.4 °F 28.2 °F 35.6 °F 93% 29.87 in 2.0 mi NNE 16.1 mph - 0.00 in Rain Light Rain
1:33 PM 37.4 °F 28.5 °F 35.6 °F 93% 29.87 in 1.8 mi NNE 15.0 mph 23.0 mph 0.00 in Rain Light Rain
1:55 PM 36.0 °F 26.3 °F 35.1 °F 97% 29.91 in 1.2 mi NNE 16.1 mph - 0.01 in Rain Light Rain
2:45 PM 35.6 °F 24.8 °F 35.6 °F 100% 29.88 in 2.0 mi NNE 19.6 mph 26.5 mph 0.02 in Rain Light Rain
2:55 PM 36.0 °F 24.4 °F 34.0 °F 93% 29.92 in 2.5 mi NNE 23.0 mph 28.8 mph 0.02 in Rain Light Rain
3:09 PM 35.6 °F 24.2 °F 33.8 °F 93% 29.88 in 3.0 mi NE 21.9 mph 29.9 mph 0.00 in Rain Light Rain
3:24 PM 35.6 °F 24.0 °F 33.8 °F 93% 29.88 in 2.5 mi NE 23.0 mph 28.8 mph 0.00 in Rain Light Rain
3:47 PM 35.6 °F 24.0 °F 33.8 °F 93% 29.89 in 3.0 mi NE 23.0 mph 29.9 mph 0.00 in Rain Light Rain
3:55 PM 35.1 °F 22.5 °F 33.1 °F 92% 29.91 in 4.0 mi NE 26.5 mph 32.2 mph 0.00 in Rain Light Rain
4:03 PM 33.8 °F 21.3 °F 33.8 °F 100% 29.89 in 3.0 mi NNE 24.2 mph 36.8 mph 0.00 in Rain Light Rain
4:55 PM 30.0 °F 17.2 °F 28.9 °F 96% 29.98 in 5.0 mi NNE 20.7 mph 33.4 mph 0.00 in   Overcast
5:10 PM 28.4 °F 14.1 °F 28.4 °F 100% 29.95 in 2.5 mi NNE 24.2 mph 32.2 mph 0.00 in Snow Light Snow
5:18 PM 28.4 °F 14.1 °F 26.6 °F 93% 29.96 in 2.0 mi NNE 24.2 mph 33.4 mph 0.00 in Snow Light Snow
5:43 PM 28.4 °F 15.1 °F 26.6 °F 93% 29.98 in 2.0 mi NNE 20.7 mph 33.4 mph 0.00 in Snow Light Snow
5:55 PM 28.0 °F 14.6 °F 26.1 °F 92% 30.04 in 1.8 mi NNE 20.7 mph 27.6 mph 0.00 in Snow Light Snow
6:04 PM 26.6 °F 12.4 °F 24.8 °F 93% 30.00 in 1.8 mi NNE 21.9 mph 32.2 mph 0.00 in Snow Light Snow
6:08 PM 26.6 °F 12.0 °F 24.8 °F 93% 30.00 in 2.0 mi NNE 23.0 mph 31.1 mph 0.00 in   Overcast
6:20 PM 26.6 °F 13.8 °F 26.6 °F 100% 30.01 in 2.0 mi NNE 17.3 mph 31.1 mph 0.00 in   Overcast
6:43 PM 26.6 °F 13.1 °F 24.8 °F 93% 30.01 in 1.5 mi NNE 19.6 mph 25.3 mph 0.01 in Snow Light Snow
6:55 PM 26.1 °F 13.1 °F 24.1 °F 92% 30.07 in 1.0 mi NNE 17.3 mph 25.3 mph 0.02 in Snow Light Snow
7:34 PM 24.8 °F 11.1 °F 23.0 °F 93% 30.03 in 1.2 mi NNE 18.4 mph 27.6 mph 0.02 in Snow Light Snow
7:46 PM 24.8 °F 11.1 °F 23.0 °F 93% 30.03 in 1.5 mi NNE 18.4 mph - 0.02 in Snow Light Snow
7:55 PM 25.0 °F 8.9 °F 23.0 °F 92% 30.08 in 1.2 mi NNE 26.5 mph 31.1 mph 0.02 in Snow Light Snow
8:37 PM 23.0 °F 6.9 °F 19.4 °F 86% 30.07 in 1.5 mi NNE 24.2 mph 29.9 mph 0.02 in Snow Light Snow
8:52 PM 23.0 °F 8.3 °F 19.4 °F 86% 30.10 in 1.2 mi North 19.6 mph 32.2 mph 0.02 in Snow Light Snow
8:55 PM 23.0 °F 8.0 °F 19.9 °F 88% 30.16 in 1.0 mi North 20.7 mph 28.8 mph 0.02 in Snow Light Snow
9:12 PM 21.2 °F 4.9 °F 19.4 °F 93% 30.10 in 0.8 mi North 23.0 mph 29.9 mph 0.02 in   Mist
9:29 PM 21.2 °F 5.2 °F 19.4 °F 93% 30.12 in 0.8 mi North 21.9 mph 29.9 mph 0.04 in   Mist
9:55 PM 19.9 °F 3.5 °F 18.0 °F 92% 30.18 in 0.8 mi North 21.9 mph 33.4 mph 0.06 in   Mist
10:55 PM 19.9 °F 3.5 °F 17.1 °F 89% 30.18 in 0.8 mi North 21.9 mph 33.4 mph 0.05 in   Mist
11:55 PM 19.0 °F 1.6 °F 17.1 °F 92% 30.19 in 0.8 mi North 24.2 mph 29.9 mph 0.04 in   Mist